Voltar ao catálogo

GLOBALSTAR M078

AtivoComunicaçõesLEO
NORAD 39076·PAYLOAD·🇺🇸 United States

Lançado Feb 6, 2013 de Baikonur Cosmodrome

Loading…

Próximas Passagens (próximas 24 horas)

TLE

AtualizadoSource: Space-Track

Época: Sep 14, 2026, 08:43 UTC

1 39076U 13005E   26257.36333837 -.00000176  00000-0 -40580-3 0  9998
2 39076  51.9900  12.0446 0001542 102.5524 257.5516 12.62259205627278

Acompanhe GLOBALSTAR M078 em tempo real com AllMySat

Download on the App Store